Change the Weather History Date:

Wednesday, April 9, 2014

  Actual Average Record
Temperature  
Mean Temperature 47 °F 48 °F  
Max Temperature 56 °F 56 °F 77 °F (1959)
Min Temperature 38 °F 40 °F 32 °F (1982)
Degree Days  
Heating Degree Days 18 17  
Month to date heating degree days 142 154  
Since 1 July heating degree days 4087 4074  
Cooling Degree Days 0 0  
Month to date cooling degree days 0 0  
Year to date cooling degree days 0 0  
Moisture  
Dew Point 40 °F    
Average Humidity 77    
Maximum Humidity 100    
Minimum Humidity 54    
Precipitation  
Precipitation 0.00 in 0.19 in 1.46 in (1971)
Month to date precipitation 1.65 1.80  
Year to date precipitation 26.27 26.64  
Sea Level Pressure  
Sea Level Pressure 30.25 in    
Wind  
Wind Speed 7 mph (ESE)    
Max Wind Speed 20 mph    
Max Gust Speed 25 mph    
Visibility 5 miles    
Events Fog    
T = Trace of Precipitation, MM = Missing Value Source: NWS Daily Summary

Daily Weather History Graph

Daily Weather History Graph

Search for Another Location

Airport or City:

Trip Planner

Search our weather history database for the weather conditions in past years. The results will help you decide how hot, cold, wet, or windy it might be!

Date:

Astronomy

Apr. 09, 2014 Rise Set
Actual Time 6:39 AM PDT 7:55 PM PDT
Civil Twilight 6:09 AM PDT 8:25 PM PDT
Nautical Twilight 5:31 AM PDT 9:03 PM PDT
Astronomical Twilight 4:52 AM PDT 9:42 PM PDT
Moon 2:32 PM PDT (4/9) 3:49 AM PDT (4/9)
Length of Visible Light 14h 16m
Length of Day
13h 15m
Waxing Gibbous, 72% of the Moon is Illuminated
Apr 9
Waxing Gibbous
Apr 15
Full
Apr 22
Last Quarter
Apr 28
New
May 6
First Quarter

Hourly Weather History & Observations

Time (PDT) Temp. Windchill Dew Point Humidity Pressure Visibility Wind Dir Wind Speed Gust Speed Precip Events Conditions
12:26 AM 45.0 °F 43.5 °F 43.0 °F 93% 30.21 in 9.0 mi WSW 3.5 mph - N/A   Mostly Cloudy
12:55 AM 46.0 °F 44.8 °F 44.1 °F 93% 30.22 in 10.0 mi WSW 3.5 mph - N/A   Overcast
1:50 AM 46.4 °F - 42.8 °F 87% 30.23 in 10.0 mi Calm Calm - N/A   Scattered Clouds
1:55 AM 46.0 °F - 43.0 °F 89% 30.22 in 10.0 mi Calm Calm - N/A   Scattered Clouds
2:02 AM 46.0 °F - 43.0 °F 89% 30.22 in 10.0 mi Calm Calm - N/A   Mostly Cloudy
2:09 AM 45.0 °F - 43.0 °F 93% 30.22 in 10.0 mi Calm Calm - N/A   Scattered Clouds
2:47 AM 44.1 °F - 42.1 °F 93% 30.22 in 1.8 mi Calm Calm - N/A   Scattered Clouds
2:50 AM 42.8 °F - 41.0 °F 93% 30.22 in 1.2 mi Calm Calm - N/A   Mostly Cloudy
2:55 AM 42.1 °F - 41.0 °F 96% 30.22 in 1.0 mi Calm Calm - N/A   Mostly Cloudy
3:07 AM 42.1 °F - 41.0 °F 96% 30.23 in 2.0 mi Calm Calm - N/A   Mostly Cloudy
3:13 AM 42.8 °F - 39.2 °F 87% 30.23 in 1.8 mi Calm Calm - N/A   Scattered Clouds
3:18 AM 42.1 °F - 39.9 °F 92% 30.23 in 3.0 mi Calm Calm - N/A   Scattered Clouds
3:55 AM 41.0 °F 38.0 °F 39.0 °F 93% 30.23 in 2.0 mi ESE 4.6 mph - N/A   Mostly Cloudy
3:57 AM 41.0 °F 38.0 °F 39.0 °F 93% 30.23 in 1.0 mi ESE 4.6 mph - N/A   Mostly Cloudy
4:02 AM 41.0 °F 39.0 °F 39.0 °F 93% 30.23 in 0.2 mi SE 3.5 mph - N/A Fog Fog
4:16 AM 41.0 °F 38.0 °F 39.0 °F 93% 30.24 in 0.5 mi ESE 4.6 mph - N/A Fog Fog
4:28 AM 41.0 °F 39.0 °F 39.9 °F 96% 30.24 in 0.8 mi Variable 3.5 mph - N/A   Mist
4:35 AM 41.0 °F 38.0 °F 39.0 °F 93% 30.24 in 0.5 mi SE 4.6 mph - N/A Fog Fog
4:55 AM 39.9 °F - 39.0 °F 97% 30.24 in 0.5 mi Calm Calm - N/A Fog Fog
5:02 AM 39.9 °F - 39.0 °F 97% 30.24 in 0.8 mi Calm Calm - N/A   Mist
5:22 AM 39.0 °F 36.8 °F 37.9 °F 96% 30.23 in 0.2 mi ESE 3.5 mph - N/A Fog Fog
5:36 AM 39.0 °F 36.8 °F 37.9 °F 96% 30.23 in 0.2 mi East 3.5 mph - N/A Fog Fog
5:55 AM 39.0 °F - 37.9 °F 96% 30.24 in 0.2 mi Calm Calm - N/A Fog Fog
6:50 AM 37.4 °F 33.8 °F 35.6 °F 93% 30.24 in 0.2 mi ESE 4.6 mph - N/A Fog Fog
6:55 AM 37.9 °F - 36.0 °F 93% 30.24 in 0.2 mi Calm Calm - N/A Fog Fog
7:20 AM 39.0 °F 35.7 °F 37.0 °F 93% 30.25 in 0.2 mi SE 4.6 mph - N/A Fog Fog
7:25 AM 39.0 °F 35.7 °F 37.0 °F 93% 30.25 in 0.2 mi SE 4.6 mph - N/A Fog Fog
7:33 AM 37.9 °F 35.5 °F 37.0 °F 97% 30.25 in 0.2 mi South 3.5 mph - N/A Fog Fog
7:44 AM 39.0 °F 35.7 °F 37.9 °F 96% 30.26 in 1.0 mi South 4.6 mph - N/A   Mist
7:47 AM 39.9 °F 37.8 °F 39.0 °F 97% 30.26 in 3.0 mi South 3.5 mph - N/A   Mostly Cloudy
7:55 AM 39.9 °F 36.7 °F 39.0 °F 97% 30.26 in 8.0 mi SSE 4.6 mph - N/A   Scattered Clouds
8:43 AM 44.1 °F 42.5 °F 42.1 °F 93% 30.27 in 2.5 mi East 3.5 mph - N/A   Scattered Clouds
8:55 AM 45.0 °F 43.5 °F 43.0 °F 93% 30.27 in 10.0 mi ESE 3.5 mph - N/A   Scattered Clouds
9:55 AM 50.0 °F - 44.1 °F 80% 30.28 in 10.0 mi NNW 5.8 mph - N/A   Partly Cloudy
10:55 AM 52.0 °F - 42.1 °F 69% 30.29 in 10.0 mi Variable 4.6 mph - N/A   Clear
11:55 AM 53.1 °F - 39.9 °F 61% 30.29 in 10.0 mi NNW 4.6 mph - N/A   Clear
12:55 PM 54.0 °F - 37.9 °F 55% 30.28 in 10.0 mi NNW 10.4 mph - N/A   Clear
1:55 PM 55.0 °F - 42.1 °F 62% 30.28 in 10.0 mi NW 15.0 mph - N/A   Clear
2:55 PM 55.9 °F - 41.0 °F 57% 30.27 in 10.0 mi WNW 13.8 mph - N/A   Clear
3:55 PM 54.0 °F - 41.0 °F 62% 30.27 in 10.0 mi NW 17.3 mph - N/A   Clear
4:55 PM 54.0 °F - 39.9 °F 59% 30.26 in 10.0 mi NW 15.0 mph - N/A   Clear
5:55 PM 52.0 °F - 39.0 °F 61% 30.26 in 10.0 mi NW 16.1 mph - N/A   Clear
6:55 PM 51.1 °F - 39.0 °F 63% 30.25 in 10.0 mi NW 13.8 mph - N/A   Clear
7:55 PM 48.9 °F - 39.9 °F 71% 30.24 in 10.0 mi NNW 11.5 mph - N/A   Clear
8:55 PM 48.0 °F - 39.0 °F 71% 30.25 in 10.0 mi NNW 6.9 mph - N/A   Clear
9:55 PM 48.0 °F - 39.0 °F 71% 30.27 in 10.0 mi NNW 4.6 mph - N/A   Clear
10:55 PM 48.0 °F - 39.0 °F 71% 30.27 in 10.0 mi NNW 6.9 mph - N/A   Clear
11:55 PM 46.0 °F - 39.0 °F 76% 30.27 in 10.0 mi Calm Calm - N/A   Clear